• In United Kingdom
  • List of Countries
  • For 7 days
  • Water Temperature
  • Satellite Maps
  • Weather Map
  • Weather Widgets
  • user-avatar
    Login

    Hourly Weather Artashat

    Today, 24 October, Wednesday

    Time Temperature Precipitation Wind Pressure Humidity
    00:00 +7°C° 0 mm 2 mps 602 mmHg 67%
    01:00 +6°C° 0 mm 2 mps 602 mmHg 68%
    02:00 +6°C° 0 mm 2 mps 601 mmHg 69%
    03:00 +7°C° 0 mm 2 mps 601 mmHg 69%
    04:00 +6°C° 0 mm 2 mps 601 mmHg 70%
    05:00 +6°C° 0 mm 2 mps 601 mmHg 70%
    06:00 +6°C° 0 mm 2 mps 601 mmHg 70%
    07:00 +7°C° 0.3 mm 2 mps 601 mmHg 67%
    08:00 +8°C° 0.3 mm 3 mps 601 mmHg 63%
    09:00 +9°C° 0.3 mm 3 mps 602 mmHg 59%
    10:00 +10°C° 0.1 mm 3 mps 602 mmHg 54%
    11:00 +12°C° 0.1 mm 4 mps 602 mmHg 48%
    12:00 +13°C° 0.1 mm 4 mps 602 mmHg 43%
    13:00 +13°C° 0 mm 4 mps 602 mmHg 42%
    14:00 +14°C° 0 mm 5 mps 601 mmHg 41%
    15:00 +14°C° 0 mm 5 mps 601 mmHg 41%
    16:00 +13°C° 0.2 mm 4 mps 600 mmHg 46%
    17:00 +12°C° 0.2 mm 4 mps 600 mmHg 51%
    18:00 +11°C° 0.2 mm 3 mps 600 mmHg 56%
    19:00 +10°C° 0.1 mm 3 mps 599 mmHg 59%
    20:00 +10°C° 0.1 mm 3 mps 599 mmHg 61%
    21:00 +9°C° 0.1 mm 3 mps 599 mmHg 64%
    22:00 +9°C° 0 mm 3 mps 599 mmHg 66%
    23:00 +8°C° 0 mm 3 mps 598 mmHg 67%

    Tomorrow, 25 October, Thursday

    Time Temperature Precipitation Wind Pressure Humidity
    00:00 +8°C° 0 mm 3 mps 598 mmHg 69%
    01:00 +7°C° 0 mm 3 mps 598 mmHg 69%
    02:00 +7°C° 0 mm 3 mps 597 mmHg 69%
    03:00 +7°C° 0 mm 3 mps 597 mmHg 70%
    04:00 +7°C° 0 mm 3 mps 597 mmHg 70%
    05:00 +7°C° 0 mm 3 mps 597 mmHg 70%
    06:00 +5°C° 0 mm 3 mps 596 mmHg 70%
    07:00 +7°C° 0 mm 4 mps 597 mmHg 63%
    08:00 +10°C° 0 mm 4 mps 597 mmHg 56%
    09:00 +12°C° 0 mm 5 mps 598 mmHg 49%
    10:00 +13°C° 0 mm 6 mps 598 mmHg 45%
    11:00 +14°C° 0 mm 7 mps 598 mmHg 41%
    12:00 +16°C° 0 mm 8 mps 598 mmHg 38%
    13:00 +15°C° 0.2 mm 8 mps 597 mmHg 38%
    14:00 +15°C° 0.2 mm 8 mps 597 mmHg 39%
    15:00 +15°C° 0.2 mm 9 mps 596 mmHg 40%
    16:00 +13°C° 0 mm 8 mps 596 mmHg 43%
    17:00 +12°C° 0 mm 7 mps 595 mmHg 46%
    18:00 +12°C° 0 mm 5 mps 595 mmHg 49%
    19:00 +11°C° 0.2 mm 4 mps 595 mmHg 52%
    20:00 +11°C° 0.2 mm 3 mps 595 mmHg 54%
    21:00 +10°C° 0.2 mm 2 mps 594 mmHg 57%
    22:00 +10°C° 0.7 mm 2 mps 594 mmHg 61%
    23:00 +9°C° 0.7 mm 3 mps 594 mmHg 64%

    Day after tomorrow, 26 October, Friday

    Time Temperature Precipitation Wind Pressure Humidity
    00:00 +9°C° 0.7 mm 3 mps 594 mmHg 68%
    01:00 +9°C° 0.5 mm 3 mps 594 mmHg 69%
    02:00 +8°C° 0.5 mm 3 mps 593 mmHg 71%
    03:00 +8°C° 0.5 mm 3 mps 593 mmHg 72%
    04:00 +8°C° 0 mm 3 mps 593 mmHg 74%
    05:00 +8°C° 0 mm 3 mps 593 mmHg 75%
    06:00 +7°C° 0 mm 3 mps 593 mmHg 76%
    07:00 +8°C° 0.2 mm 4 mps 594 mmHg 70%
    08:00 +10°C° 0.2 mm 4 mps 595 mmHg 64%
    09:00 +10°C° 0.2 mm 5 mps 596 mmHg 58%
    10:00 +10°C° 0.9 mm 5 mps 596 mmHg 56%
    11:00 +10°C° 0.9 mm 5 mps 596 mmHg 53%
    12:00 +10°C° 0.9 mm 5 mps 597 mmHg 50%
    13:00 +9°C° 0.9 mm 5 mps 596 mmHg 53%
    14:00 +8°C° 0.9 mm 5 mps 596 mmHg 56%
    15:00 +6°C° 0.9 mm 5 mps 596 mmHg 59%
    16:00 +6°C° 0.5 mm 5 mps 596 mmHg 61%
    17:00 +5°C° 0.5 mm 5 mps 596 mmHg 64%
    18:00 +3°C° 0.5 mm 5 mps 597 mmHg 66%
    19:00 +3°C° 0.6 mm 4 mps 597 mmHg 65%
    20:00 +3°C° 0.6 mm 4 mps 598 mmHg 64%
    21:00 +3°C° 0.6 mm 3 mps 598 mmHg 64%
    22:00 +3°C° 0.1 mm 3 mps 599 mmHg 64%
    23:00 +2°C° 0.1 mm 3 mps 599 mmHg 64%

    27 October, Saturday

    Time Temperature Precipitation Wind Pressure Humidity
    00:00 +2°C° 0.1 mm 3 mps 599 mmHg 64%
    01:00 +2°C° 0.1 mm 3 mps 599 mmHg 64%
    02:00 +1°C° 0.1 mm 3 mps 600 mmHg 64%
    03:00 +1°C° 0.1 mm 3 mps 600 mmHg 64%
    04:00 +1°C° 0 mm 3 mps 600 mmHg 63%
    05:00 +2°C° 0 mm 2 mps 601 mmHg 62%
    06:00 +2°C° 0 mm 2 mps 601 mmHg 61%
    07:00 +2°C° 0 mm 2 mps 602 mmHg 57%
    08:00 +3°C° 0 mm 2 mps 603 mmHg 53%
    09:00 +4°C° 0 mm 2 mps 604 mmHg 49%
    10:00 +5°C° 0 mm 2 mps 604 mmHg 46%
    11:00 +6°C° 0 mm 2 mps 604 mmHg 43%
    12:00 +8°C° 0 mm 1 mps 605 mmHg 41%
    13:00 +8°C° 0 mm 1 mps 605 mmHg 39%
    14:00 +9°C° 0 mm 1 mps 605 mmHg 38%
    15:00 +9°C° 0 mm 1 mps 605 mmHg 37%
    16:00 +8°C° 0 mm 1 mps 605 mmHg 41%
    17:00 +7°C° 0 mm 1 mps 605 mmHg 45%
    18:00 +6°C° 0 mm 1 mps 605 mmHg 49%
    19:00 +5°C° 0 mm 1 mps 605 mmHg 51%
    20:00 +5°C° 0 mm 1 mps 605 mmHg 52%
    21:00 +4°C° 0 mm 1 mps 606 mmHg 54%
    22:00 +4°C° 0 mm 1 mps 606 mmHg 55%
    23:00 +3°C° 0 mm 0 mps 605 mmHg 56%

    28 October, Sunday

    Time Temperature Precipitation Wind Pressure Humidity
    00:00 +2°C° 0 mm 0 mps 605 mmHg 58%
    01:00 +2°C° 0 mm 0 mps 605 mmHg 59%
    02:00 +1°C° 0 mm 0 mps 605 mmHg 60%
    03:00 +1°C° 0 mm 0 mps 605 mmHg 61%
    04:00 +1°C° 0 mm 0 mps 605 mmHg 61%
    05:00 +1°C° 0 mm 0 mps 605 mmHg 62%
    06:00 0°C° 0 mm 0 mps 605 mmHg 63%
    07:00 +2°C° 0 mm 0 mps 606 mmHg 56%
    08:00 +4°C° 0 mm 0 mps 607 mmHg 49%
    09:00 +6°C° 0 mm 0 mps 608 mmHg 42%
    10:00 +8°C° 0 mm 1 mps 608 mmHg 39%
    11:00 +9°C° 0 mm 1 mps 608 mmHg 35%
    12:00 +10°C° 0 mm 1 mps 608 mmHg 32%
    13:00 +11°C° 0 mm 1 mps 608 mmHg 31%
    14:00 +11°C° 0 mm 1 mps 608 mmHg 29%
    15:00 +11°C° 0 mm 1 mps 608 mmHg 28%
    16:00 +10°C° 0 mm 1 mps 607 mmHg 33%
    17:00 +8°C° 0 mm 1 mps 607 mmHg 38%
    18:00 +7°C° 0 mm 1 mps 606 mmHg 43%
    19:00 +5°C° 0 mm 0 mps 606 mmHg 44%
    20:00 +5°C° 0 mm 0 mps 606 mmHg 45%
    21:00 +4°C° 0 mm 0 mps 606 mmHg 46%
    22:00 +4°C° 0 mm 0 mps 606 mmHg 46%
    23:00 +3°C° 0 mm 0 mps 606 mmHg 46%

    29 October, Monday

    Time Temperature Precipitation Wind Pressure Humidity
    00:00 +3°C° 0 mm 0 mps 606 mmHg 46%
    01:00 +3°C° 0 mm 0 mps 606 mmHg 45%
    02:00 +2°C° 0 mm 0 mps 605 mmHg 44%
    03:00 +2°C° 0 mm 0 mps 605 mmHg 44%
    04:00 +2°C° 0 mm 0 mps 605 mmHg 44%
    05:00 +2°C° 0 mm 1 mps 605 mmHg 44%
    06:00 +2°C° 0 mm 1 mps 605 mmHg 44%
    07:00 +4°C° 0 mm 1 mps 607 mmHg 39%
    08:00 +7°C° 0 mm 1 mps 608 mmHg 34%
    09:00 +9°C° 0 mm 1 mps 609 mmHg 29%
    10:00 +10°C° 0 mm 1 mps 609 mmHg 28%
    11:00 +11°C° 0 mm 1 mps 609 mmHg 27%
    12:00 +12°C° 0 mm 2 mps 609 mmHg 26%
    13:00 +12°C° 0 mm 2 mps 609 mmHg 25%
    14:00 +13°C° 0 mm 2 mps 609 mmHg 25%
    15:00 +13°C° 0 mm 2 mps 609 mmHg 25%
    16:00 +11°C° 0 mm 1 mps 608 mmHg 29%
    17:00 +9°C° 0 mm 1 mps 607 mmHg 34%
    18:00 +8°C° 0 mm 1 mps 607 mmHg 39%
    19:00 +7°C° 0 mm 1 mps 607 mmHg 40%
    20:00 +7°C° 0 mm 1 mps 607 mmHg 41%
    21:00 +6°C° 0 mm 1 mps 607 mmHg 42%
    22:00 +6°C° 0 mm 1 mps 606 mmHg 43%
    23:00 +4°C° 0 mm 0 mps 606 mmHg 44%

    30 October, Tuesday

    Time Temperature Precipitation Wind Pressure Humidity
    00:00 +4°C° 0 mm 0 mps 606 mmHg 44%
    01:00 +3°C° 0 mm 0 mps 606 mmHg 45%
    02:00 +3°C° 0 mm 0 mps 606 mmHg 45%
    03:00 +3°C° 0 mm 0 mps 605 mmHg 46%
    04:00 +3°C° 0 mm 0 mps 605 mmHg 47%
    05:00 +2°C° 0 mm 0 mps 605 mmHg 48%
    06:00 +2°C° 0 mm 0 mps 605 mmHg 50%
    07:00 +4°C° 0 mm 0 mps 606 mmHg 44%
    08:00 +7°C° 0 mm 0 mps 607 mmHg 38%
    09:00 +9°C° 0 mm 0 mps 608 mmHg 32%
    10:00 +11°C° 0 mm 1 mps 608 mmHg 30%
    11:00 +12°C° 0 mm 1 mps 608 mmHg 29%
    12:00 +13°C° 0 mm 1 mps 608 mmHg 27%
    13:00 +13°C° 0 mm 1 mps 608 mmHg 27%
    14:00 +13°C° 0 mm 1 mps 608 mmHg 27%
    15:00 +14°C° 0 mm 1 mps 608 mmHg 27%
    16:00 +12°C° 0 mm 1 mps 607 mmHg 32%
    17:00 +10°C° 0 mm 1 mps 606 mmHg 36%
    18:00 +7°C° 0 mm 0 mps 606 mmHg 41%
    19:00 +7°C° 0 mm 0 mps 606 mmHg 43%
    20:00 +6°C° 0 mm 0 mps 606 mmHg 44%
    21:00 +6°C° 0 mm 0 mps 606 mmHg 45%
    22:00 +6°C° 0 mm 0 mps 605 mmHg 46%
    23:00 +5°C° 0 mm 0 mps 605 mmHg 48%
    Show more